RESURS O1 DEB, 23347

Orbit data source: Space-Track

RESURS O1 DEB, 23347 is space debris in SSO originally from a launch on Fri, 04 Nov 1994 UTC launched from the Tyuratam Missile And Space Complex (TTMTR). Debris objects in space refer to the collection of defunct objects orbiting the Earth. Examples of debris include non-operational satellites, rocket bodies, and fragments generated from explosions, collisions, or faulty payload assembly.

Loading next visibility...
Identifier
23347, 1994-074F
Orbit
SSO
Country
Flag of CISCIS
Related business
Manufacturer
Yuzhnoe
Mission
Spacecraft
Bus & Motor
SEP MOTOR COVER, Unknown motor
Mass
~0 kg wet, ~1 kg dry
Launch date (UTC)
1994-11-04 (31 years ago)
Launch vehicle
Unknown
Launch site
Tyuratam Missile And Space Complex (TTMTR)
Object type
Payload
Rocket body
Debris
Shape & HBR
Unknown shape, 0.2 m
Radar Cross Section
Small (<0.1 m²)

Expand to show TLE details & history
Last TLE update: 5 hours ago

TLE from 5 hours ago
0 RESURS O1 DEB
1 23347U 94074F   26034.16172176  .00001592  00000-0  32701-3 0  9992
2 23347  97.8348 107.1955 0121340 219.6671 194.9751 14.57424019650544
Epoch: 2026-02-03T03:52Z
TLE epoch observation values (Epoch: 2026-02-03T03:52:52.760Z)
Latitude
53.65121°
Longitude
-95.09024°
Altitude
793.385 km
Speed
7.418 km/s
True Right ascension
06h 25m 54s
True Declination
53° 29' 16"
Sunlit
Object was in full shadow at epoch
Visualization orbit readout
Latitude
Unknown
Longitude
Unknown
Altitude
Unknown
Speed
Unknown
Apparent Right ascension
Unknown
Apparent Declination
Unknown
Sunlit
N/A
Visualization observer readout
Local Sidereal Time
11:15:18
Azimuth
Unknown
Elevation
Unknown
Doppler factor
Unknown
Orbital elements
Apogee altitude
784.44 km
Perigee altitude
612.703 km
Semi-major axis
7,076.708 km
Eccentricity
0.01213
Inclination
97.8348°
RAAN
107.1955°
Arg. of periapsis
219.6671°
True anomaly
194.621°
Mean anomaly
194.9751°
Eccentric anomaly
194.79754°
Mean motion
3.64583 °/min
Orbital period
98.74 mins
BSTAR
0.00032701
Loading maneuver chart data...
Computing Atmospheric mass density...

Documentation

Showing up to 5 results
|